User: anonymous   Login
Location: Unspecified
(0.0000°N, 0.0000°E)
Time: 11:48:05
(UTC+00:00)
Language:

UFO 10 - Orbit

View from above orbital plane
View from above orbital plane
View from above satellite
View from above satellite

Ground track
Ground track

The orbit data is extracted from the following two-line orbital elements,

1 25967U 99063A   23271.16299493 -.00000194  00000-0  00000+0 0  9998
2 25967   9.2991  31.7153 0005188 162.8673 208.2573  1.00272811 87381
Epoch (UTC): 28 September 2023 03:54:42
Eccentricity: 0.0005188
inclination: 9.2991°
perigee height: 35764 km
apogee height: 35808 km
right ascension of ascending node: 31.7153°
argument of perigee: 162.8673°
revolutions per day: 1.00272811
mean anomaly at epoch: 208.2573°
orbit number at epoch: 8738

The dashed part of the orbit path shows where the satellite is in the earth's shadow,  

DLR